Время (UTC), дата Ветер
(°,м/с) 
Видим.   Явления Облачность Т
(°С)
Тd
(°С)
f(%) Тe
(°С)
Pmin
(гПа)
dP
(гПа)
Po
(мм)
O2
(г/м3)
Тmin Tmax R s Состояние
почвы
00 01.06.13 080 (В) 10 км    5/0 средняя, верхняя 
[Ac trans|Ci fib]
+19.6 +9.5 52 +21  1004.8  -0.4  747  279           
03 01.06.13 080 (В) 10 км    8/0 средняя, верхняя 
[Ac trans|Ci fib]
+21.1 +9.6 48 +22  1004.6  -0.1  747  278  +18.8         
06 01.06.13 110 (В) 10 км    9/3 1000 м средняя, верхняя 
[Cu med, cong|Ac trans|Ci fib]
+23.6 +12.9 51 +29  1005.2  0.7  748  275           
09 01.06.13 100 (В) 10 км    8/3 1000 м средняя, верхняя 
[Cu med, cong|Ac trans|Ci fib]
+28.9 +9 29 +29  1004.5  -0.5  747  271           
12 01.06.13 110 (В) 10 км    8/4 1000 м средняя, верхняя 
[Cu med, cong|Ac trans|Ci fib]
+30 +8.2 26 +30  1002.9  -1.5  746  269           
15 01.06.13 250 (З) 9-13{13}  10 км    10/5 1000 м кучево-дожд., средняя 
[Cb calv|Ac und]
+24.2 +15.2 57 +33  1004.2  1.1  747  273    +31.1       
18 01.06.13 270 (З) 7-10{13}  10 км  слаб. ливневой дождь, в посл. час гроза  10/6 1000 м кучево-дожд., средняя 
[Cb calv|Ac und]
+17.6 +14.9 84 +26  1007.5  749  280           
21 01.06.13 290 (З) 2{11}  10 км  {ливн. осадки}  6/4 1000 м кучево-дожд., средняя 
[Cb calv|Ac trans]
+16.5 +13.7 84 +24  1006.9  -0.6  749  282           
00 02.06.13 280 (З) 2{11}  10 км  {ливн. осадки}  5/0 средняя 
[Ac trans]
+16.7 +14.3 86 +26  1007.5  0.6  749  281           
03 02.06.13 290 (З) 10 км    6/0 средняя, верхняя 
[Ac trans|Ci fib]
+16.5 +12.6 78 +22  1008.1  0.5  749  282  +14.8       
06 02.06.13 270 (З) 10 км    5/1 1000 м средняя, верхняя 
[Cu med, cong|Ac trans|Ci fib]
+20.8 +12.3 58 +25  1008.3  0.4  750  278           
09 02.06.13 230 (ЮЗ) 10 км    8/4 1000 м средняя, верхняя 
[Cu med, cong|Ac trans|Ci fib]
+23.4 +11.9 48 +27  1008.1  -0.1  750  276           
12 02.06.13 240 (ЮЗ) 8-11{11}  10 км    8/5 1200 м кучево-дожд., средняя, верхняя 
[Cb calv|Ac trans|Ci fib]
+24.7 +9.2 37 +25  1008.1  0.1  750  275           
15 02.06.13 250 (З) 5{11}  10 км    6/4 1000 м кучево-дожд., средняя, верхняя 
[Cb calv|Ac trans|Ci fib]
+23.6 +7.6 36 +24  1007.3  -0.8  749  277    +25.3       
18 02.06.13 280 (З) 2{11}  10 км    4/0 средняя, верхняя 
[Ac trans|Ci fib]
+20.2 +12 59 +24  1008  0.6  749  279           
21 02.06.13 340 (С) 10 км    4/0 верхняя 
[Ci fib]
+17.8 +10.8 64 +21  1006.7  -1.3  749  281           
00 03.06.13 тихо ()   10 км    6/0 средняя, верхняя 
[Ac trans|Ci fib]
+14.8 +12.1 84 +19  1006.2  -0.6  748  284           
03 03.06.13 050 (СВ) 10 км    9/0 средняя, верхняя 
[Ac trans|Ci fib]
+18.1 +12.6 70 +24  1005.3  -0.7  747  280  +13.3         
06 03.06.13 110 (В) 10 км    9/0 средняя, верхняя 
[Ac trans|Ci fib]
+21.7 +12.6 56 +27  1005.3  748  277           
09 03.06.13 100 (В) 10 км    8/4 1000 м средняя, верхняя 
[Cu med, cong|Ac trans|Ci fib]
+24.7 +7.8 34 +25  1004.8  -0.3  747  275           
12 03.06.13 040 (СВ) 10 км    9/6 1200 м кучево-дожд., средняя 
[Cb calv|Ac trans]
+25.8 +8.4 33 +26  1004.8  747  274           
15 03.06.13 200 (Ю) 10 км    9/5 1200 м кучево-дожд., средняя 
[Cb calv|Ac trans]
+23.3 +12.2 50 +28  1005  0.2  747  275    +26.5       
18 03.06.13 090 (В) 10 км    9/5 1200 м кучево-дожд., средняя 
[Cb calv|Ac trans]
+21.1 +11.7 55 +25  1006.2  1.1  748  278           
21 03.06.13 080 (В) 10 км    9/5 1200 м кучево-дожд., средняя 
[Cb calv|Ac trans]
+19 +12.6 66 +24  1006.9  0.5  749  280           
00 04.06.13 090 (В) 10 км    9/5 1200 м средняя 
[Sc diur, vesp|Ac lent]
+17.6 +11.6 68 +21  1007.3  0.4  749  281           
03 04.06.13 090 (В) 10 км    8/3 1000 м кучево-дожд., средняя 
[Cb calv|Ac trans]
+16.9 +13.6 81 +23  1007.4  0.1  749  281  +16.5         
06 04.06.13 100 (В) 10 км    9/5 700 м кучево-дожд., средняя 
[Cb calv|Ac trans]
+19.7 +13.8 69 +27  1008.6  1.1  750  279           
09 04.06.13 130 (ЮВ) 7-10{10}  10 км  {ливн. осадки}  9/5 1000 м кучево-дожд., средняя 
[Cb calv|Ac trans]
+23.3 +10.6 45 +25  1009.1  0.5  750  277           
12 04.06.13 150 (ЮВ) 4{11}  10 км  {ливн. осадки}  9/4 1000 м кучево-дожд., средняя 
[Cb calv|Ac trans]
+20 +12.1 60 +24  1010.1  0.9  751  280           
15 04.06.13 110 (В) 10 км  слаб. ливневой дождь  10/5 300 м кучево-дожд., средняя 
[Cb calv|Ac trans]
+17.5 +13.4 77 +24  1010.6  0.4  751  282    +24  0.6     
18 04.06.13 100 (В) 10 км  в посл. час ливневой дождь  9/5 300 м кучево-дожд., средняя 
[Cb calv|Ac trans]
+16.3 +14.6 90 +24  1011.7  752  283           
21 04.06.13 130 (ЮВ) 10 км  {ливн. осадки}  9/6 420 м средняя 
[Sc|Ac trans]
+16.7 +14.7 88 +25  1012.1  0.3  752  283           
00 05.06.13 180 (Ю) 10 км  {ливн. осадки}  10/10 180 м 
[St]
+16.6 +14.9 90 +25  1012.5  0.4  753  283           
03 05.06.13 180 (Ю) 10 км    9/5 450 м средняя 
[Sc|Ac trans]
+16.6 +14.1 85 +23  1013.2  0.6  753  283  +15.8       
06 05.06.13 200 (Ю) 10 км    9/4 600 м кучево-дожд., средняя 
[Cb calv|Ac trans]
+20.5 +15.2 72 +29  1013.9  0.8  754  279           
09 05.06.13 190 (Ю) 8-11{11}  10 км    9/6 1000 м кучево-дожд., средняя 
[Cb calv|Ac trans]
+22.4 +13.9 59 +29  1013.7  -0.2  754  278           
12 05.06.13 240 (ЮЗ) 6{3/}  10 км    9/5 1000 м кучево-дожд., средняя, верхняя 
[Cb calv|Ac trans|Ci fib]
+23.6 +13.8 54 +30  1014  0.2  754  277           
15 05.06.13 260 (З) 10 км    8/5 1000 м кучево-дожд., верхняя 
[Cb calv|Ci fib]
+23.2 +13.6 55 +29  1013.6  -0.2  754  277    +24.9       
18 05.06.13 290 (З) 10 км    8/0 средняя, верхняя 
[Ac trans|Ci fib]
+20.2 +15 72 +29  1014.8  755  280           
21 05.06.13 тихо ()   10 км    4/0 верхняя 
[Ci fib]
+16.5 +12.7 78 +21  1015  755  284           
00 06.06.13 тихо ()   10 км    3/0 верхняя 
[Ci fib]
+14.4 +12.3 87 +19  1015.1  755  286           
03 06.06.13 тихо ()   4000 м  дымка  4/1 600 м кучево-дожд., верхняя 
[Cb calv|Ci fib]
+17.7 +14.9 84 +26  1015.3  0.3  755  283  +13.8         
06 06.06.13 200 (Ю) 10 км    3/1 1000 м средняя 
[Cu med, cong|Ac trans]
+22.1 +13 56 +27  1015.4  0.3  755  279           
09 06.06.13 190 (Ю) 10 км    6/6 1200 м кучево-дожд. 
[Cb calv]
+25.4 +9.8 37 +26  1014.8  -0.5  755  277           
12 06.06.13 220 (ЮЗ) 10 км    8/5 1200 м кучево-дожд., средняя 
[Cb calv|Ac trans]
+26.5 +10.7 37 +28  1013.6  -1.1  754  275           
15 06.06.13 340 (С) 10 км    8/3 1000 м кучево-дожд., средняя, верхняя 
[Cb calv|Ac trans|Ci fib]
+25.5 +7.2 31 +26  1013.6  -0.1  754  277    +27.7       
18 06.06.13 050 (СВ) 10 км  зарница  8/3 1000 м кучево-дожд., средняя, верхняя 
[Cb calv|Ac trans|Ci fib]
+19.6 +12 61 +24  1014.4  0.6  754  281           
21 06.06.13 040 (СВ) 10 км    3/0 верхняя 
[Ci fib]
+17.3 +12.3 72 +22  1014.3  -0.2  754  283           
00 07.06.13 050 (СВ) 10 км    5/0 средняя, верхняя 
[Ac trans|Ci fib]
+15 +12 82 +19  1014.1  -0.3  754  286           
03 07.06.13 070 (В) 10 км    8/0 средняя, верхняя 
[Ac trans|Ci fib]
+16.3 +12.6 79 +21  1014.6  0.6  754  284  +13.6         
06 07.06.13 060 (СВ) 10 км    5/0 средняя, верхняя 
[Ac trans|Ci fib]
+22.4 +13.7 58 +29  1014.4  754  278           
09 07.06.13 120 (ЮВ) 10 км    6/3 1000 м верхняя 
[Cu med, cong|Ci fib]
+25.8 +10.4 38 +27  1014  -0.1  754  276           
12 07.06.13 280 (З) 10 км  слаб. ливневой дождь  9/6 1200 м кучево-дожд., верхняя 
[Cb calv|Ci fib]
+24.3 +11.2 44 +27  1013  -1.1  753  277           
15 07.06.13 360 (С) 10 км  в посл. час гроза{ливн. осадки}  9/3 1000 м кучево-дожд., средняя, верхняя 
[Cb calv|Ac trans|Ci fib]
+21.6 +13.4 60 +28  1013.6  0.5  754  279    +27.3  0.0     
18 07.06.13 220 (ЮЗ) 10 км  в посл. час ливневой дождь{гроза}  9/5 1200 м кучево-дожд., средняя 
[Cb calv|Ac trans]
+18.8 +13.6 72 +26  1015.3  1.4  755  282           
21 07.06.13 310 (СЗ) 10 км    9/3 1000 м кучево-дожд., средняя 
[Cb calv|Ac trans]
+18.7 +13.1 70 +24  1014.5  -0.7  754  282           
00 08.06.13 340 (С) 10 км    6/3 1000 м кучево-дожд., средняя 
[Cb calv|Ac trans]
+17.6 +12.4 72 +22  1013.7  -0.7  754  283           
03 08.06.13 060 (СВ) 10 км    9/0 средняя 
[Ac trans]
+17.3 +10.2 63 +19  1014  0.3  754  284  +17.1    0.0     
06 08.06.13 070 (В) 10 км  в посл. час ливневой дождь  9/3 1000 м кучево-дожд., средняя 
[Cb calv|Ac trans]
+19.1 +9.5 54 +19  1014.6  0.6  754  282           
09 08.06.13 100 (В) 10 км    8/3 1000 м средняя 
[Cu med, cong|Ac trans]
+24.1 +11 44 +26  1014.3  -0.1  754  277           
12 08.06.13 240 (ЮЗ) 10 км  гроза, ливневой дождь  8/6 1200 м кучево-дожд., средняя 
[Cb cap|Ac trans]
+24.9 +11.5 43 +28  1013.2  -1  753  276           
15 08.06.13 240 (ЮЗ) 10 км  {гроза, ливн. осадки}  8/5 1200 м кучево-дожд., средняя 
[Cb calv|Ac trans]
+20.4 +12.2 59 +25  1013.1  -0.2  753  280    +27.5     
18 08.06.13 340 (С) 10 км  {гроза, ливн. осадки}  5/1 1000 м кучево-дожд., средняя 
[Cb calv|Ac trans]
+18.6 +11.6 64 +23  1013.6  0.3  754  282           
21 08.06.13 350 (С) 10 км    5/0 средняя 
[Ac trans]
+17.8 +11 64 +21  1013.6  754  283           
00 09.06.13 110 (В) 10 км    6/0 средняя 
[Ac trans]
+15.5 +10.9 74 +19  1013.4  -0.2  753  285           
03 09.06.13 070 (В) 10 км    3/0 средняя 
[Ac trans]
+18.4 +11.7 65 +22  1013.6  0.2  754  282  +14.5         
06 09.06.13 090 (В) 10 км    3/0 средняя 
[Ac trans]
+24.7 +8.6 36 +25  1013.6  0.1  754  277           
09 09.06.13 080 (В) 10 км    5/5 1500 м 
[Cu med, cong]
+28.6 +2.1 18 +29  1013.5  754  275           
12 09.06.13 070 (В) 10 км    5/5 1500 м 
[Cu med, cong]
+28.8 +1.8 18 +29  1012.3  -1.1  753  274           
15 09.06.13 090 (В) 10 км    5/3 1500 м средняя 
[Cu med, cong|Ac trans]
+28.9 +1.4 17 +29  1011.6  -0.6  752  274    +30.1       
18 09.06.13 070 (В) 10 км    3/0 средняя 
[Ac trans]
+23.8 +5.9 32 +24  1012.4  0.7  753  278           
21 09.06.13 060 (СВ) 10 км    ясно 
+19 +6.2 43 +20  1013.2  0.5  753  283           
00 10.06.13 350 (С) 10 км    ясно 
+17.5 +7 50 +19  1013.5  0.3  754  284           
03 10.06.13 230 (ЮЗ) 10 км    ясно 
+18 +10.7 62 +21  1013.9  0.4  754  283  +15.7         
06 10.06.13 080 (В) 10 км    ясно 
+27.3 +7.4 28 +27  1014.1  0.4  754  275           
09 10.06.13 060 (СВ) 10 км    5/5 1500 м 
[Cu med, cong]
+30.7 +3.4 18 +31  1013.6  -0.4  754  273           
12 10.06.13 140 (ЮВ) 10 км    8/5 1500 м средняя, верхняя 
[Cu med, cong|Ac trans|Ci fib]
+30.8 +3.4 18 +31  1012.5  -1  753  272           
15 10.06.13 360 (С) 10 км    6/1 1500 м средняя, верхняя 
[Cu med, cong|Ac trans|Ci fib]
+30.1 +5.9 22 +30  1011.9  -0.6  753  272    +31.5       
18 10.06.13 060 (СВ) 10 км    5/0 средняя, верхняя 
[Ac trans|Ci fib]
+21.4 +8.6 44 +21  1013.3  753  280           
21 10.06.13 080 (В) 10 км    3/0 верхняя 
[Ci fib]
+20.7 +9.3 48 +21  1013.4  0.1  754  281           
00 11.06.13 070 (В) 10 км    3/0 средняя 
[Ac trans]
+19.5 +10 54 +21  1013.4  754  282           
03 11.06.13 050 (СВ) 10 км    3/0 средняя 
[Ac trans]
+19.6 +11.1 58 +23  1014.1  0.6  754  281  +16.8         
06 11.06.13 090 (В) 10 км    5/0 средняя 
[Ac trans]
+26.1 +9.2 34 +26  1013.7  -0.1  754  276           
09 11.06.13 100 (В) 10 км    5/5 1500 м 
[Cu med, cong]
+30.8 +4.4 19 +31  1013.2  -0.1  754  272           
12 11.06.13 100 (В) 10 км    5/5 1500 м 
[Cu hum]
+32 +4.4 18 +32  1011.9  -1.4  753  271           
15 11.06.13 110 (В) 10 км    6/3 1500 м верхняя 
[Cu med, cong|Ci fib]
+31.1 +4.6 19 +31  1011.1  -0.8  752  271    +32.4       
18 11.06.13 090 (В) 10 км    6/0 средняя, верхняя 
[Ac trans|Ci fib]
+24.8 +4.3 27 +25  1011.5  0.1  752  277           
21 11.06.13 070 (В) 10 км    6/0 средняя, верхняя 
[Ac trans|Ci fib]
+22.1 +5.7 34 +22  1012.1  0.5  753  280           
00 12.06.13 060 (СВ) 10 км    ясно 
+17.5 +8.3 55 +18  1011.9  -0.2  752  283           
03 12.06.13 060 (СВ) 10 км    8/0 верхняя 
[Ci fib]
+21.1 +10.6 51 +23  1011.8  752  279  +16.9         
06 12.06.13 100 (В) 10 км    9/0 средняя, верхняя 
[Ac trans|Ci fib]
+23.8 +13.3 52 +30  1011.9  0.1  752  276           
09 12.06.13 160 (Ю) 10 км    9/1 1500 м средняя, верхняя 
[Cu med, cong|Ac trans|Ci fib]
+28.2 +9.3 31 +28  1011.8  752  273           
12 12.06.13 150 (ЮВ) 10 км    9/5 1500 м кучево-дожд., средняя, верхняя 
[Cb calv|Ac trans|Ci fib]
+28.3 +8.4 29 +28  1010.6  -1.2  752  273           
15 12.06.13 220 (ЮЗ) 10 км    9/3 1500 м кучево-дожд., средняя, верхняя 
[Cb calv|Ac trans|Ci fib]
+26.9 +8.1 30 +27  1009.5  -1.1  751  274    +30       
18 12.06.13 360 (С) 10 км    9/3 1500 м кучево-дожд., средняя 
[Cb calv|Ac trans]
+25.3 +9.4 37 +26  1010.4  0.8  751  275           
21 12.06.13 010 (С) 4{13}  10 км  {ливн. осадки}  8/3 1000 м кучево-дожд., средняя 
[Cb calv|Ac trans]
+23.2 +10 43 +24  1009.9  -0.5  751  277           
00 13.06.13 010 (С) 10 км  {ливн. осадки}  9/0 средняя 
[Ac trans]
+21.1 +11.7 55 +25  1009.8  -0.1  751  279           
03 13.06.13 060 (СВ) 10 км    5/0 средняя, верхняя 
[Ac trans|Ci fib]
+20.5 +12.2 59 +25  1010.1  0.2  751  279  +18.4    0.8     
06 13.06.13 060 (СВ) 10 км    6/0 средняя, верхняя 
[Ac trans|Ci fib]
+27.2 +12.3 40 +32  1010.2  0.2  751  273           
09 13.06.13 070 (В) 9-12{12}  10 км    8/1 1500 м средняя, верхняя 
[Cu hum|Ac trans|Ci fib]
+31.4 +8.3 24 +31  1009.5  -0.6  751  270           
12 13.06.13 070 (В) 7-12{12}  10 км    8/3 1500 м средняя, верхняя 
[Cu med, cong|Ac trans|Ci fib]
+32.7 +8 22 +33  1008.2  -1.1  750  269           
15 13.06.13 070 (В) 7-10{13}  10 км    6/3 1500 м средняя, верхняя 
[Cu med, cong|Ac trans|Ci fib]
+32.3 +7.5 21 +32  1007  -1.2  749  269    +33.6       
18 13.06.13 070 (В) 7-10{13}  10 км    6/3 1500 м кучево-дожд., средняя, верхняя 
[Cb calv|Ac trans|Ci fib]
+28 +7.9 28 +28  1008.2  1.1  750  273           
21 13.06.13 070 (В) 7-10{11}  10 км  зарница  5/3 1500 м кучево-дожд., средняя 
[Cb calv|Ac trans]
+25 +8.4 35 +25  1008.1  -0.1  750  275           
00 14.06.13 070 (В) 6{11}  10 км  зарница  5/1 1500 м кучево-дожд., средняя 
[Cb calv|Ac trans]
+22.4 +10.9 48 +25  1009.1  0.8  750  277           
03 14.06.13 070 (В) 10 км    6/3 1500 м кучево-дожд., средняя, верхняя 
[Cb calv|Ac trans|Ci fib]
+23 +9.9 43 +24  1009.7  0.6  751  277  +21         
06 14.06.13 070 (В) 10 км    6/1 1500 м кучево-дожд., средняя, верхняя 
[Cb calv|Ac trans|Ci fib]
+28.2 +9.7 31 +29  1010.2  0.6  751  273           
09 14.06.13 070 (В) 8-12{12}  10 км    6/1 1500 м кучево-дожд., средняя, верхняя 
[Cb calv|Ac trans|Ci fib]
+30.8 +9.9 27 +32  1010.3  0.4  751  270           
12 14.06.13 060 (СВ) 8-11{12}  10 км    4/0 средняя, верхняя 
[Ac trans|Ci fib]
+34 +6.9 19 +34  1009.3  -0.9  751  268           
15 14.06.13 070 (В) 7-11{11}  10 км    4/0 средняя, верхняя 
[Ac trans|Ci fib]
+34.5 +5 16 +35  1008  -1.3  750  267    +35.1       
18 14.06.13 050 (СВ) 9-12{12}  10 км    6/0 средняя, верхняя 
[Ac trans|Ci fib]
+29.8 +8.1 26 +30  1008.3  0.2  750  271           
21 14.06.13 070 (В) 12-15{16}  10 км    4/0 верхняя 
[Ci fib]
+26.7 +9.9 35 +28  1008.8  0.2  750  274           
00 15.06.13 080 (В) 9-15{16}  10 км  гроза без осадков  8/4 1000 м кучево-дожд., средняя, верхняя 
[Cb cap|Ac trans|Ci fib]
+24.6 +10.1 40 +26  1008.9  0.1  750  276           
03 15.06.13 070 (В) 8-12{15}  10 км  слаб. ливневой дождь{гроза}  9/8 750 м кучево-дожд., средняя 
[Cb calv|Ac und]
+19.8 +12.3 62 +24  1011  1.9  752  280  +19.3    0.3     
06 15.06.13 100 (В) 8-12{15}  10 км  в посл. час ливневой дождь{гроза}  9/3 1000 м кучево-дожд., средняя, верхняя 
[Cb calv|Ac trans|Ci fib]
+27.3 +10.9 36 +30  1011.3  0.4  752  274           
09 15.06.13 070 (В) 8-12{12}  10 км    8/1 1000 м кучево-дожд., средняя, верхняя 
[Cb calv|Ac trans|Ci fib]
+31.6 +8.7 24 +32  1010.1  -0.9  751  270           
12 15.06.13 090 (В) 10-15{15}  10 км    8/1 1500 м кучево-дожд., средняя, верхняя 
[Cb calv|Ac trans|Ci fib]
+35.6 +3 13 +36  1007.2  -2.7  749  267           
15 15.06.13 080 (В) 8-12{15}  10 км  в посл. час ливневой дождь  9/4 1500 м кучево-дожд., средняя, верхняя 
[Cb calv|Ac trans|Ci fib]
+33 +6.6 19 +33  1006  -1.1  748  268    +37  0.0     
18 15.06.13 080 (В) 7-10{15}  10 км  {ливн. осадки}  9/4 1500 м кучево-дожд., средняя 
[Cb calv|Ac trans]
+30.6 +5.1 20 +31  1006  748  270           
21 15.06.13 120 (ЮВ) 10 км  зарница{ливн. осадки}  9/4 1500 м кучево-дожд., средняя 
[Cb calv|Ac trans]
+27.1 +9.3 33 +27  1007  0.9  749  273           
03 16.06.13 320 (СЗ) 10 км  слаб. ливневой дождь  10/5 1500 м кучево-дожд., средняя 
[Cb calv|Ac und]
+21.4 +12.6 57 +26  1009.6  -0.8  751  278  +20.9    0.0     
06 16.06.13 030 (СВ) 10 км  слаб. ливневой дождь  10/5 1200 м кучево-дожд., средняя 
[Cb calv|Ac und]
+20 +13.5 66 +26  1009.5  -0.1  751  279  +18.8         
09 16.06.13 330 (СЗ) 10 км  {ливн. осадки}  9/4 1000 м кучево-дожд., средняя 
[Cb calv|Ac trans]
+24.8 +11 42 +27  1010  0.7  751  275           
12 16.06.13 210 (ЮЗ) 10 км  в посл. час ливневой дождь  10/4 1000 м кучево-дожд., средняя 
[Cb calv|Ac und]
+25.7 +12.7 44 +31  1008.9  -1.1  750  274           
15 16.06.13 330 (СЗ) 10 км  {ливн. осадки}  9/4 1000 м кучево-дожд., средняя 
[Cb calv|Ac trans]
+25.2 +14.5 51 +33  1008.4  -0.3  750  274    +27.7  0.6     
18 16.06.13 тихо ()   10 км  {ливн. осадки}  9/3 1000 м кучево-дожд., средняя 
[Cb calv|Ac trans]
+21.7 +15.1 66 +31  1008.9  0.3  750  277           
21 16.06.13 320 (СЗ) 10 км    8/1 1000 м кучево-дожд., средняя 
[Cb calv|Ac trans]
+21.7 +15.9 70 +32  1007.8  -1.1  749  276           
00 17.06.13 310 (СЗ) 10 км    8/0 средняя 
[Ac trans]
+21.3 +13.5 61 +28  1006.9  -0.8  749  277           
03 17.06.13 330 (СЗ) 10 км    8/0 средняя 
[Ac trans]
+21 +14.3 66 +29  1006.4  -0.5  748  277  +20.6         
06 17.06.13 020 (С) 10 км    8/0 средняя, верхняя 
[Ac trans|Ci fib]
+24.1 +11.7 46 +28  1006.3  748  275           
09 17.06.13 130 (ЮВ) 10 км    8/1 1000 м средняя, верхняя 
[Cu hum|Ac trans|Ci fib]
+29.2 +11.5 33 +32  1005.6  -0.5  748  270           
12 17.06.13 290 (З) 10 км    8/4 1500 м кучево-дожд., средняя, верхняя 
[Cb calv|Ac trans|Ci fib]
+31.2 +11.4 30 +34  1004.7  -0.7  747  268           
15 17.06.13 360 (С) 3{10}  10 км  в посл. час гроза  8/5 1000 м кучево-дожд., средняя, верхняя 
[Cb calv|Ac trans|Ci fib]
+26 +15 51 +35  1006  0.9  748  272    +31.6       
18 17.06.13 320 (СЗ) 3{10}  10 км  {гроза}  8/4 1000 м кучево-дожд., средняя, верхняя 
[Cb calv|Ac trans|Ci fib]
+24.2 +17.6 67 +38  1006.3  0.3  748  273           
21 17.06.13 210 (ЮЗ) 10 км  зарница  6/3 1000 м кучево-дожд., средняя 
[Cb calv|Ac trans]
+21.3 +18 81 +36  1006.6  0.1  749  276           
00 18.06.13 210 (ЮЗ) 10 км    9/6 330 м кучево-дожд., средняя 
[Cb calv|Ac trans]
+20.3 +17.5 84 +34  1005.9  -0.6  748  277           
03 18.06.13 360 (С) 10 км    9/5 300 м кучево-дожд., средняя 
[Cb calv|Ac trans]
+20.3 +15.9 76 +31  1006.2  0.1  748  277  +20.1         
06 18.06.13 310 (СЗ) 10 км    8/1 1000 м кучево-дожд., средняя 
[Cb calv|Ac trans]
+22.5 +15.5 65 +32  1006.3  0.1  748  275  +20.1         
09 18.06.13 320 (СЗ) 10 км    8/4 1000 м кучево-дожд., средняя 
[Cb calv|Ac trans]
+26.1 +16.5 55 +38  1005.5  -0.5  748  271           
12 18.06.13 050 (СВ) 5{11}  10 км  гроза без осадков{ливн. осадки}  8/8 1200 м кучево-дожд. 
[Cb cap]
+22.3 +18.1 77 +37  1006.4  0.7  748  275           
15 18.06.13 020 (С) 8-12{11}  10 км  {гроза}  8/4 1000 м кучево-дожд., средняя, верхняя 
[Cb calv|Ac trans|Ci fib]
+23.5 +16 63 +34  1007.5  749  275    +26.8     
18 18.06.13 340 (С) 4{12}  10 км  {гроза}  5/0 средняя, верхняя 
[Ac trans|Ci fib]
+21.8 +15.1 66 +31  1008.5  0.9  750  277           
21 18.06.13 340 (С) 10 км    3/0 средняя 
[Ac trans]
+20.2 +15.1 72 +29  1008.9  0.3  750  278           
00 19.06.13 340 (С) 10 км    6/0 средняя 
[Ac trans]
+18.9 +15.4 80 +28  1008.4  -0.5  750  279           
03 19.06.13 340 (С) 10 км    3/0 средняя 
[Ac trans]
+18.6 +15.1 80 +28  1009.5  1.1  751  280  +17.8         
06 19.06.13 340 (С) 5{11}  10 км    5/3 1000 м средняя 
[Cu hum|Ac trans]
+22.4 +15.2 64 +31  1010.3  0.9  751  277  +17.8         
09 19.06.13 360 (С) 5{10}  10 км    6/6 1080 м 
[Cu med, cong]
+25.8 +9.5 36 +26  1010.1  -0.1  751  275           
15 19.06.13 360 (С) 7-12{16}  10 км  {ливн. осадки}  4/1 1000 м кучево-дожд., средняя 
[Cb calv|Ac trans]
+22.4 +9.3 43 +23  1010.5  751  278    +27.3  0.0     
21 19.06.13 330 (СЗ) 10 км    4/0 средняя 
[Ac trans]
+16.4 +7.5 56 +16  1012.7  0.3  753  285           
00 20.06.13 320 (СЗ) 10 км    3/0 средняя 
[Ac trans]
+15.1 +7.9 62 +15  1012.7  753  286           
03 20.06.13 320 (СЗ) 10 км    1/0 средняя 
[Ac trans]
+15.4 +8.7 64 +15  1013.1  0.4  753  286  +14.3         
06 20.06.13 320 (СЗ) 10 км    3/0 средняя 
[Ac trans]
+20.6 +9.8 50 +21  1013.3  0.3  753  281           
09 20.06.13 330 (СЗ) 10 км    8/6 1500 м кучево-дожд., средняя 
[Cb calv|Ac trans]
+23.6 +6.9 34 +24  1013.6  0.4  754  278           
12 20.06.13 030 (СВ) 5{12}  10 км  слаб. ливневой дождь{гроза}  9/6 1500 м кучево-дожд., средняя 
[Cb calv|Ac trans]
+25.6 +7.4 31 +26  1012.8  -0.8  753  276           
15 20.06.13 310 (СЗ) 3{10}  10 км  {гроза, ливн. осадки}  9/6 1500 м кучево-дожд., средняя 
[Cb calv|Ac trans]
+25.7 +4.8 26 +26  1012.9  0.1  753  277    +26  0.0     
18 20.06.13 010 (С) 3{10}  10 км  {гроза, ливн. осадки}  5/1 1500 м кучево-дожд., средняя 
[Cb calv|Ac trans]
+21.3 +4.8 34 +21  1014.5  1.4  754  281           
21 20.06.13 240 (ЮЗ) 10 км    5/0 средняя 
[Ac trans]
+16.3 +7.3 55 +18  1014.7  754  286           
00 21.06.13 310 (СЗ) 10 км    3/0 средняя 
[Ac trans]
+15.9 +7 55 +17  1014.4  -0.3  754  286           
03 21.06.13 320 (СЗ) 10 км    3/0 верхняя 
[Ci fib]
+17.1 +6.8 51 +18  1014.5  0.2  754  285  +14.4         
06 21.06.13 320 (СЗ) 10 км    8/0 средняя, верхняя 
[Ac trans|Ci fib]
+23.4 +6.2 33 +23  1014.6  0.3  755  279           
09 21.06.13 320 (СЗ) 10 км    8/5 1300 м кучево-дожд., средняя 
[Cb calv|Ac trans]
+24.5 +5.1 29 +25  1013.5  -1.1  754  278           
12 21.06.13 260 (З) 5{10}  10 км    9/6 1380 м кучево-дожд., средняя 
[Cb calv|Ac trans]
+24.8 +9.6 38 +25  1012.6  -0.9  753  276           
15 21.06.13 260 (З) 8-12{12}  10 км  гроза без осадков{морось}  9/6 1200 м кучево-дожд., средняя 
[Cb cap|Ac trans]
+23.9 +12.5 49 +28  1011.7  -0.9  752  276    +27       
18 21.06.13 300 (СЗ) 3{12}  10 км  {гроза, ливн. осадки}  9/5 1200 м кучево-дожд., средняя 
[Cb calv|Ac trans]
+19.2 +15.3 78 +29  1013.1  1.1  753  280           
21 21.06.13 260 (З) 10 км  в посл. час ливневой дождь  9/5 1200 м кучево-дожд., средняя 
[Cb calv|Ac trans]
+17.8 +13.4 75 +24  1011.7  -1.3  752  282           
00 22.06.13 220 (ЮЗ) 10 км  в посл. час гроза{ливн. осадки}  9/5 1200 м кучево-дожд., средняя 
[Cb cap|Ac trans]
+16.7 +14.5 87 +26  1010.7  -1  751  282           
03 22.06.13 230 (ЮЗ) 10 км    5/3 1000 м кучево-дожд., средняя 
[Cb calv|Ac trans]
+16.9 +14.8 87 +25  1010.4  -0.1  751  282  +16       
06 22.06.13 330 (СЗ) 10 км    4/1 600 м средняя 
[Cu hum|Ac trans]
+22.9 +11.7 49 +26  1009.8  -0.5  751  277           
09 22.06.13 310 (СЗ) 10 км    8/5 1200 м кучево-дожд., средняя 
[Cb calv|Ac trans]
+26 +8 32 +26  1008.9  -0.7  750  275           
12 22.06.13 350 (С) 10 км    6/5 1500 м средняя 
[Cu med, cong|Ac trans]
+26.2 +7 29 +26  1008.4  -0.5  750  275           
15 22.06.13 310 (СЗ) 10 км    6/4 1500 м кучево-дожд., средняя 
[Cb calv|Ac trans]
+26.6 +4.7 25 +27  1008.3  750  275    +27.7       
18 22.06.13 350 (С) 10 км    4/0 
[]
+22.3 +5.9 34 +22  1009.2  0.7  750  279           
21 22.06.13 070 (В) 10 км    1/0 средняя 
[Ac trans]
+16.2 +10.2 68 +18  1010.1  0.6  751  284           
00 23.06.13 050 (СВ) 10 км    4/0 средняя, верхняя 
[Ac trans|Ci fib]
+15.6 +9.9 69 +17  1010  -0.1  751  284           
03 23.06.13 тихо ()   10 км    4/0 средняя, верхняя 
[Ac trans|Ci fib]
+18 +12 68 +22  1010.1  0.2  751  282  +13.4         
06 23.06.13 140 (ЮВ) 10 км    5/1 1000 м средняя 
[Cu med, cong|Ac trans]
+23 +12.4 51 +27  1010.4  0.4  751  277           
09 23.06.13 290 (З) 10 км    8/8 1300 м кучево-дожд., средняя 
[Cb calv|Ac trans]
+25.2 +8 33 +25  1010  -0.3  751  276           
12 23.06.13 270 (З) 10 км    5/3 1500 м кучево-дожд., средняя 
[Cb calv|Ac trans]
+27.5 +8.1 29 +28  1009.2  -0.7  751  273           
15 23.06.13 360 (С) 10 км    8/3 1500 м кучево-дожд., средняя 
[Cb calv|Ac trans]
+25.4 +9.1 36 +25  1009.2  751  275    +27.8       
18 23.06.13 030 (СВ) 10 км    8/3 1000 м кучево-дожд., средняя 
[Cb calv|Ac trans]
+22.6 +10.3 46 +24  1010.1  0.8  751  278           
21 23.06.13 080 (В) 10 км    5/0 средняя 
[Ac trans]
+16.7 +10.5 67 +20  1010.6  0.2  751  283           
00 24.06.13 030 (СВ) 10 км    3/0 средняя 
[Ac trans]
+18.3 +10 58 +20  1010.7  0.2  752  282           
03 24.06.13 тихо ()   10 км    3/0 средняя 
[Ac trans]
+17.8 +11.2 65 +21  1010.8  752  282  +16.7         
06 24.06.13 170 (Ю) 10 км    3/1 1000 м средняя 
[Cu med, cong|Ac trans]
+22.8 +12.8 53 +28  1011  0.3  752  277           
09 24.06.13 300 (СЗ) 10 км    6/6 1500 м 
[Cu med, cong]
+25.6 +9.5 36 +26  1010.6  -0.2  752  275           
12 24.06.13 330 (СЗ) 10 км    6/6 1500 м 
[Cu med, cong]
+27.7 +8.1 29 +28  1009.9  -0.7  751  273           
15 24.06.13 050 (СВ) 10 км    5/3 1500 м кучево-дожд., средняя 
[Cb calv|Ac trans]
+27.8 +8.2 29 +28  1009.7  -0.2  751  273    +28.6       
18 24.06.13 270 (З) 10 км    4/0 средняя 
[Ac trans]
+24 +12.1 47 +28  1010.1  0.3  751  276           
21 24.06.13 340 (С) 10 км    3/0 средняя 
[Ac trans]
+21.7 +10.9 50 +24  1010.5  0.5  751  279           
00 25.06.13 330 (СЗ) 10 км    8/0 средняя, верхняя 
[Ac trans|Ci fib]
+19.9 +11.1 57 +24  1010.4  -0.3  751  280           
03 25.06.13 350 (С) 10 км    8/1 1000 м кучево-дожд., средняя 
[Cb calv|Ac trans]
+21.2 +11.9 55 +25  1010.3  751  279  +19.1         
06 25.06.13 330 (СЗ) 10 км    5/3 1000 м средняя 
[Cu med, cong|Ac trans]
+26.7 +13.2 43 +32  1009.9  -0.1  751  273           
09 25.06.13 360 (С) 10 км    8/8 1380 м кучево-дожд. 
[Cb calv]
+30.4 +14.8 39 +39  1008.9  -0.9  750  269           
12 25.06.13 150 (ЮВ) 3{13}  10 км  гроза, ливневой дождь  9/8 960 м кучево-дожд., средняя 
[Cb cap|Ac trans]
+24.3 +17.8 67 +38  1009.5  0.3  751  274           
15 25.06.13 300 (СЗ) 10 км  гроза, ливневой дождь  9/6 900 м кучево-дожд., средняя 
[Cb cap|Ac trans]
+25.5 +18.7 66 +41  1009.3  -0.2  751  272    +32.8     
18 25.06.13 090 (В) 10 км  зарница{гроза, ливн. осадки}  9/5 900 м кучево-дожд., средняя 
[Cb cap|Ac trans]
+23.7 +18.1 71 +38  1010.2  0.8  751  274           
21 25.06.13 020 (С) 10 км    6/3 600 м кучево-дожд., средняя 
[Cb calv|Ac trans]
+23.8 +17 66 +36  1010.5  0.2  751  275           
00 26.06.13 020 (С) 10 км    ясно 
+20.2 +16.2 78 +31  1011.7  1.1  752  279           
03 26.06.13 360 (С) 10 км    ясно 
+22.9 +14.3 58 +30  1012.8  1.1  753  277  +18.3    0.0     
06 26.06.13 020 (С) 10 км    ясно 
+28.2 +15.1 45 +37  1013.2  0.5  754  272           
09 26.06.13 070 (В) 10 км    5/5 1300 м 
[Cu med, cong]
+30 +13.1 35 +35  1013.8  0.7  754  271           
12 26.06.13 020 (С) 10 км    5/5 1300 м 
[Cu med, cong]
+32.5 +10.7 26 +34  1013.5  -0.3  754  270           
15 26.06.13 100 (В) 10 км    5/4 1000 м средняя 
[Ac trans]
+32 +11.1 28 +35  1013.3  -0.2  754  270    +33.1       
18 26.06.13 080 (В) 10 км    4/0 средняя 
[Ac trans]
+26.2 +13.5 45 +32  1014.4  754  275           
21 26.06.13 060 (СВ) 10 км    3/0 средняя 
[Ac trans]
+24.4 +13.2 50 +30  1015.1  0.6  755  277           
00 27.06.13 060 (СВ) 10 км    3/0 верхняя 
[Ci fib]
+22 +13.2 57 +28  1015.7  0.5  755  279           
03 27.06.13 070 (В) 10 км    3/0 верхняя 
[Ci fib]
+23.4 +14.1 56 +30  1016  0.3  756  278  +19.8         
06 27.06.13 070 (В) 10 км    ясно 
+29.6 +11.3 32 +32  1016.3  0.4  756  273           
09 27.06.13 110 (В) 10 км    4/4 1000 м 
[Cu med, cong]
+32 +10.1 26 +33  1015.8  -0.3  756  271           
12 27.06.13 070 (В) 10 км    4/4 1500 м 
[Cu med, cong]
+34.3 +10.1 23 +35  1015  -0.7  755  269           
15 27.06.13 100 (В) 10 км    4/3 1500 м кучево-дожд., средняя 
[Cb calv|Ac trans]
+33.5 +7.6 20 +34  1013.9  -1  754  269    +34.4       
18 27.06.13 360 (С) 10 км    4/1 1500 м кучево-дожд., средняя 
[Cb calv|Ac trans]
+28.3 +9.4 31 +29  1014.4  754  274           
21 27.06.13 360 (С) 10 км    4/0 средняя 
[Ac trans]
+27.1 +13.1 42 +33  1013.9  -0.5  754  274           
00 28.06.13 030 (СВ) 10 км    4/0 средняя 
[Ac trans]
+25.3 +12.6 45 +30  1013.8  -0.1  754  276           
03 28.06.13 030 (СВ) 10 км    ясно 
+25.8 +13 45 +31  1013.4  -0.3  754  275  +23.1         
06 28.06.13 070 (В) 10 км    ясно 
+31.1 +14.1 36 +38  1012.5  -0.7  753  270           
09 28.06.13 350 (С) 10 км    ясно 
+34.1 +11.7 26 +38  1011.3  -1.1  752  267           
12 28.06.13 010 (С) 10 км    5/5 1500 м 
[Cu med, cong]
+35.1 +9.5 21 +36  1009.8  -1.5  751  267           
15 28.06.13 010 (С) 10 км    4/4 1500 м 
[Cu med, cong]
+35.4 +9.2 20 +36  1008.3  -1.3  750  266    +36       
18 28.06.13 300 (СЗ) 10 км    4/0 средняя 
[Ac trans]
+30.2 +15.6 41 +40  1008.4  -0.1  750  269           
21 28.06.13 050 (СВ) 10 км    3/0 верхняя 
[Ci fib]
+25.7 +14.2 49 +33  1008.2  -0.2  750  273           
00 29.06.13 040 (СВ) 10 км    1/0 средняя 
[Ac trans]
+24 +14 54 +31  1007.8  -0.4  749  275           
03 29.06.13 070 (В) 10 км    4/0 средняя 
[Ac trans]
+23.7 +15.2 59 +33  1007.6  -0.1  749  275  +22.4         
06 29.06.13 070 (В) 10 км    3/1 1500 м средняя 
[Cu hum|Ac trans]
+28.2 +16.5 49 +40  1007.1  -0.4  749  270           
09 29.06.13 320 (СЗ) 9-13{12}  10 км    3/3 1500 м 
[Cu hum]
+30.8 +14.8 38 +39  1007.5  0.5  749  268           
12 29.06.13 010 (С) 4{14}  10 км    4/0 средняя, верхняя 
[Ac trans|Ci fib]
+33.9 +10.2 23 +35  1005.8  -1.6  748  266           
15 29.06.13 090 (В) 10 км    6/1 1500 м средняя, верхняя 
[Cu med, cong|Ac trans|Ci fib]
+31.6 +15.4 38 +41  1005.2  -0.6  748  267    +34.8       
18 29.06.13 080 (В) 10 км    6/0 средняя, верхняя 
[Ac trans|Ci fib]
+26.2 +16.1 54 +37  1006.4  748  272           
21 29.06.13 340 (С) 10 км    4/0 верхняя 
[Ci fib]
+24.4 +15.3 57 +34  1006.1  -0.2  748  274           
00 30.06.13 310 (СЗ) 10 км  гроза, ливневой дождь  8/4 1500 м кучево-дожд., средняя, верхняя 
[Cb cap|Ac trans|Ci fib]
+23 +14.5 59 +31  1007  0.8  749  275           
03 30.06.13 260 (З) 10 км  {гроза, ливн. осадки}  8/5 1500 м кучево-дожд., средняя 
[Cb calv|Ac trans]
+19.4 +16.7 84 +32  1006.6  -0.4  748  278  +19.1       
06 30.06.13 300 (СЗ) 10 км  {гроза, ливн. осадки}  ясно 
+25.6 +15.9 55 +36  1006  -0.4  748  272           
Время (UTC), дата Ветер
(°,м/с) 
Видим.   Явления Облачность Т
(°С)
Тd
(°С)
f(%) Тe
(°С)
Pmin
(гПа)
dP
(гПа)
Po
(мм)
O2
(г/м3)
Тmin Tmax R s Состояние
почвы